Location: Multiple Mirror Telescope
(31.6889°N, 110.8853°W)
Time: 23:05:07
(UTC-07:00)

BlueWalker 3 - Visible Passes

Search period start: 04 December 2023 00:00
Search period end: 14 December 2023 00:00
Orbit: 489 x 503 km, 53.2° (Epoch: 04 December)

Date Brightness Start Highest point End Pass type
(mag) Time Alt. Az. Time Alt. Az. Time Alt. Az.
04 Dec 3.4 05:46:59 16° NNW 05:49:21 31° NE 05:52:46 10° ESE visible
05 Dec 3.4 05:25:35 26° N 05:26:41 30° NE 05:30:04 10° ESE visible
06 Dec 3.5 05:04:15 30° NE 05:04:15 30° NE 05:07:23 10° ESE visible
06 Dec 3.4 06:39:11 10° WNW 06:42:12 22° SW 06:45:11 10° S visible
07 Dec 4.4 04:42:58 21° E 04:42:58 21° E 04:44:39 10° ESE visible
07 Dec 3.3 06:17:33 16° W 06:19:30 23° SW 06:22:31 10° S visible
08 Dec 5.3 04:21:44 11° E 04:21:44 11° E 04:21:56 10° ESE visible
08 Dec 3.2 05:56:19 22° WSW 05:56:47 23° SW 05:59:50 10° S visible
09 Dec 3.6 05:35:09 21° SSW 05:35:09 21° SSW 05:37:08 10° S visible
09 Dec 4.3 19:11:52 10° S 19:12:38 14° S 19:12:38 14° S visible
10 Dec 4.5 05:14:00 12° S 05:14:00 12° S 05:14:26 10° S visible
10 Dec 3.6 18:49:09 10° S 18:51:27 21° SE 18:51:27 21° SE visible
11 Dec 3.3 18:26:26 10° S 18:29:26 22° SE 18:30:13 20° ESE visible
11 Dec 5.0 20:04:09 10° WSW 20:04:47 14° W 20:04:47 14° W visible
12 Dec 3.5 18:03:41 10° S 18:06:39 21° SE 18:08:53 14° E visible
12 Dec 4.1 19:41:22 10° WSW 19:43:28 24° W 19:43:28 24° W visible
13 Dec 3.3 19:18:33 10° WSW 19:22:02 32° NW 19:22:02 32° NW visible
